| time (UTC) | temp C | wind direction | speed KPH | gust KPH | rain 1hr cm | rain 24hr cm | rain mn cm | humidity % | barometer mb |
| 20260505201016 | 6 | 245 | 1.6 | 4.8 | 0.00 | 1.70 | 0.18 | 96 | 1015.5 |
| 20260505200515 | 6 | 245 | 3.2 | 4.8 | 0.00 | 1.70 | 0.18 | 96 | 1015.5 |
| 20260505200039 | 6 | 206 | 0.0 | 6.4 | 0.00 | 1.70 | 0.18 | 96 | 1015.6 |
| 20260505195515 | 6 | 0 | 1.6 | 8.0 | 0.00 | 1.70 | 0.18 | 96 | 1015.5 |
| 20260505195018 | 6 | 248 | 3.2 | 8.0 | 0.00 | 1.70 | 0.18 | 96 | 1015.5 |
| 20260505194543 | 6 | 242 | 3.2 | 8.0 | 0.00 | 1.70 | 0.18 | 96 | 1015.4 |
| 20260505194019 | 6 | 245 | 3.2 | 6.4 | 0.00 | 1.70 | 0.18 | 96 | 1015.6 |
| 20260505193517 | 6 | 250 | 1.6 | 4.8 | 0.00 | 1.70 | 0.18 | 95 | 1015.5 |
| 20260505193037 | 6 | 254 | 1.6 | 4.8 | 0.00 | 1.70 | 0.18 | 96 | 1015.4 |
| 20260505192514 | 6 | 0 | 0.0 | 4.8 | 0.00 | 1.70 | 0.18 | 95 | 1015.4 |
| 20260505192017 | 6 | 231 | 1.6 | 4.8 | 0.00 | 1.70 | 0.18 | 95 | 1015.4 |
| 20260505191547 | 6 | 221 | 1.6 | 6.4 | 0.00 | 1.70 | 0.18 | 95 | 1015.4 |
| 20260505191021 | 6 | 221 | 1.6 | 6.4 | 0.00 | 1.70 | 0.18 | 95 | 1015.3 |
| 20260505190520 | 6 | 227 | 1.6 | 6.4 | 0.00 | 1.70 | 0.18 | 95 | 1015.2 |
| 20260505190038 | 6 | 237 | 3.2 | 6.4 | 0.00 | 1.70 | 0.18 | 95 | 1015.1 |
| 20260505185517 | 6 | 242 | 3.2 | 6.4 | 0.00 | 1.75 | 0.18 | 95 | 1015.2 |
| 20260505185021 | 7 | 237 | 1.6 | 6.4 | 0.00 | 1.75 | 0.18 | 95 | 1015.2 |
| 20260505184537 | 7 | 248 | 0.0 | 4.8 | 0.00 | 1.75 | 0.18 | 95 | 1015.2 |
| 20260505184017 | 6 | 253 | 0.0 | 4.8 | 0.00 | 1.75 | 0.18 | 95 | 1015.2 |
| 20260505183518 | 6 | 0 | 1.6 | 4.8 | 0.00 | 1.75 | 0.18 | 95 | 1015.2 |
| 20260505183034 | 6 | 0 | 0.0 | 4.8 | 0.00 | 1.75 | 0.18 | 95 | 1015.1 |
| 20260505182515 | 6 | 0 | 0.0 | 4.8 | 0.00 | 1.75 | 0.18 | 95 | 1015.1 |
| 20260505182018 | 6 | 247 | 1.6 | 6.4 | 0.00 | 1.75 | 0.18 | 94 | 1015.2 |
| 20260505181537 | 6 | 246 | 1.6 | 6.4 | 0.00 | 1.75 | 0.18 | 95 | 1015.0 |
| 20260505181017 | 6 | 241 | 3.2 | 6.4 | 0.00 | 1.75 | 0.18 | 95 | 1015.0 |
| 20260505180518 | 6 | 246 | 1.6 | 4.8 | 0.00 | 1.75 | 0.18 | 95 | 1014.9 |
| 20260505180045 | 6 | 246 | 0.0 | 6.4 | 0.00 | 1.75 | 0.18 | 95 | 1014.7 |
| 20260505175518 | 6 | 224 | 1.6 | 6.4 | 0.00 | 1.88 | 0.18 | 94 | 1014.8 |
| 20260505175018 | 6 | 240 | 3.2 | 8.0 | 0.00 | 1.88 | 0.18 | 94 | 1014.6 |
| 20260505174534 | 6 | 233 | 3.2 | 8.0 | 0.00 | 1.88 | 0.18 | 94 | 1014.5 |
| 20260505174018 | 7 | 251 | 1.6 | 4.8 | 0.00 | 1.88 | 0.18 | 94 | 1014.5 |
| 20260505173516 | 7 | 246 | 1.6 | 4.8 | 0.00 | 1.88 | 0.18 | 94 | 1014.5 |
| 20260505173034 | 6 | 246 | 1.6 | 4.8 | 0.00 | 1.88 | 0.18 | 94 | 1014.5 |
| 20260505172517 | 6 | 246 | 1.6 | 6.4 | 0.00 | 1.88 | 0.18 | 93 | 1014.5 |
| 20260505172015 | 7 | 256 | 1.6 | 6.4 | 0.00 | 1.88 | 0.18 | 94 | 1014.6 |
| 20260505171534 | 6 | 251 | 1.6 | 6.4 | 0.00 | 1.88 | 0.18 | 93 | 1014.5 |
| 20260505171016 | 7 | 244 | 1.6 | 6.4 | 0.00 | 1.88 | 0.18 | 94 | 1014.5 |
| 20260505170518 | 7 | 242 | 1.6 | 8.0 | 0.00 | 1.88 | 0.18 | 94 | 1014.4 |
| 20260505170039 | 7 | 202 | 1.6 | 8.0 | 0.00 | 1.88 | 0.18 | 94 | 1014.4 |
| 20260505165517 | 7 | 212 | 1.6 | 8.0 | 0.00 | 1.96 | 0.18 | 94 | 1014.5 |
| 20260505165016 | 7 | 236 | 1.6 | 6.4 | 0.00 | 1.96 | 0.18 | 93 | 1014.3 |
| 20260505164534 | 7 | 225 | 3.2 | 6.4 | 0.00 | 1.96 | 0.18 | 94 | 1014.2 |
| 20260505164018 | 7 | 246 | 4.8 | 6.4 | 0.00 | 1.96 | 0.18 | 96 | 1014.3 |
| 20260505163519 | 7 | 262 | 0.0 | 4.8 | 0.00 | 1.96 | 0.18 | 97 | 1014.2 |
| 20260505163035 | 7 | 0 | 1.6 | 6.4 | 0.00 | 1.96 | 0.18 | 97 | 1014.1 |
| 20260505162515 | 7 | 256 | 1.6 | 8.0 | 0.00 | 1.96 | 0.18 | 97 | 1014.1 |
| 20260505162019 | 6 | 239 | 3.2 | 8.0 | 0.00 | 1.96 | 0.18 | 97 | 1014.1 |
| 20260505161535 | 6 | 237 | 3.2 | 8.0 | 0.00 | 1.96 | 0.18 | 97 | 1014.1 |
| 20260505161017 | 6 | 0 | 0.0 | 0.0 | 0.00 | 1.96 | 0.18 | 97 | 1014.0 |
| 20260505160517 | 6 | 0 | 0.0 | 0.0 | 0.00 | 1.96 | 0.18 | 97 | 1014.0 |
| 20260505153036 | 5 | 0 | 0.0 | 0.0 | 0.00 | 1.98 | 0.18 | 97 | 1014.2 |
| 20260505152518 | 5 | 0 | 0.0 | 0.0 | 0.00 | 1.98 | 0.18 | 97 | 1014.2 |
| 20260505152021 | 5 | 0 | 0.0 | 0.0 | 0.00 | 1.98 | 0.18 | 97 | 1014.2 |
| 20260505151536 | 5 | 0 | 0.0 | 0.0 | 0.00 | 1.98 | 0.18 | 97 | 1014.1 |
| 20260505151021 | 5 | 0 | 0.0 | 0.0 | 0.00 | 1.98 | 0.18 | 97 | 1014.2 |
| 20260505150520 | 5 | 0 | 0.0 | 0.0 | 0.00 | 1.98 | 0.18 | 96 | 1014.2 |
| 20260505140518 | 3 | 0 | 0.0 | 0.0 | 0.00 | 1.98 | 0.18 | 96 | 1013.7 |
| 20260505125018 | 3 | 0 | 0.0 | 0.0 | 0.03 | 2.08 | 0.18 | 96 | 1013.5 |
| 20260505124550 | 3 | 0 | 0.0 | 0.0 | 0.03 | 2.08 | 0.18 | 96 | 1013.6 |
| 20260505124018 | 3 | 0 | 0.0 | 0.0 | 0.03 | 2.08 | 0.18 | 96 | 1013.5 |
| 20260505123518 | 3 | 0 | 0.0 | 0.0 | 0.03 | 2.08 | 0.18 | 96 | 1013.4 |
| 20260505123049 | 3 | 0 | 0.0 | 0.0 | 0.05 | 2.08 | 0.18 | 96 | 1013.4 |
| 20260505122518 | 3 | 0 | 0.0 | 0.0 | 0.05 | 2.08 | 0.18 | 96 | 1013.2 |
| 20260505122018 | 3 | 0 | 0.0 | 0.0 | 0.05 | 2.08 | 0.18 | 96 | 1013.3 |
| 20260505121616 | 3 | 0 | 0.0 | 0.0 | 0.05 | 2.08 | 0.18 | 96 | 1013.4 |
| 20260505121021 | 3 | 0 | 0.0 | 0.0 | 0.05 | 2.08 | 0.18 | 96 | 1013.3 |
| 20260505120518 | 3 | 0 | 0.0 | 0.0 | 0.05 | 2.08 | 0.18 | 96 | 1013.2 |
| 20260505120042 | 3 | 0 | 0.0 | 0.0 | 0.05 | 2.06 | 0.15 | 96 | 1013.3 |
| 20260505115517 | 3 | 0 | 0.0 | 0.0 | 0.05 | 2.06 | 0.15 | 96 | 1013.3 |
| 20260505115018 | 3 | 0 | 0.0 | 0.0 | 0.05 | 2.06 | 0.15 | 96 | 1013.3 |
| 20260505114541 | 3 | 0 | 0.0 | 0.0 | 0.05 | 2.06 | 0.15 | 96 | 1013.3 |
| 20260505114017 | 3 | 0 | 0.0 | 0.0 | 0.05 | 2.06 | 0.15 | 96 | 1013.3 |
| 20260505113518 | 3 | 0 | 0.0 | 0.0 | 0.08 | 2.06 | 0.15 | 96 | 1013.2 |
| 20260505113046 | 3 | 0 | 0.0 | 0.0 | 0.05 | 2.03 | 0.13 | 96 | 1013.1 |
| 20260505112518 | 3 | 0 | 0.0 | 0.0 | 0.05 | 2.03 | 0.13 | 96 | 1013.3 |
| 20260505112018 | 3 | 0 | 0.0 | 0.0 | 0.05 | 2.03 | 0.13 | 96 | 1013.3 |
| 20260505111539 | 3 | 0 | 0.0 | 0.0 | 0.05 | 2.03 | 0.13 | 96 | 1013.3 |
| 20260505111018 | 3 | 0 | 0.0 | 0.0 | 0.08 | 2.03 | 0.13 | 96 | 1013.3 |
| 20260505110518 | 3 | 0 | 0.0 | 0.0 | 0.08 | 2.03 | 0.13 | 96 | 1013.4 |
| 20260505102019 | 3 | 0 | 0.0 | 0.0 | 0.05 | 1.98 | 0.08 | 96 | 1013.4 |
| 20260505101540 | 3 | 0 | 0.0 | 0.0 | 0.05 | 1.98 | 0.08 | 96 | 1013.5 |
| 20260505101018 | 3 | 0 | 0.0 | 0.0 | 0.03 | 1.96 | 0.05 | 96 | 1013.7 |
| 20260505100518 | 3 | 0 | 0.0 | 0.0 | 0.03 | 1.96 | 0.05 | 96 | 1013.7 |
| 20260505100043 | 4 | 0 | 0.0 | 0.0 | 0.03 | 1.96 | 0.05 | 96 | 1013.8 |
| 20260505095519 | 4 | 0 | 0.0 | 0.0 | 0.03 | 1.96 | 0.05 | 96 | 1013.9 |
| 20260505095019 | 4 | 0 | 0.0 | 0.0 | 0.03 | 1.96 | 0.05 | 96 | 1014.0 |
| 20260505094536 | 4 | 0 | 0.0 | 0.0 | 0.03 | 1.96 | 0.05 | 96 | 1014.1 |
| 20260505094018 | 4 | 0 | 0.0 | 0.0 | 0.03 | 1.96 | 0.05 | 96 | 1014.0 |
| 20260505093517 | 4 | 0 | 0.0 | 0.0 | 0.00 | 1.93 | 0.03 | 96 | 1014.0 |
| 20260505093040 | 4 | 0 | 0.0 | 0.0 | 0.00 | 1.93 | 0.03 | 96 | 1014.0 |
| 20260505092517 | 4 | 0 | 0.0 | 0.0 | 0.00 | 1.93 | 0.03 | 96 | 1014.0 |
| 20260505092018 | 4 | 0 | 0.0 | 0.0 | 0.00 | 1.93 | 0.03 | 96 | 1014.1 |
| 20260505091549 | 4 | 0 | 0.0 | 0.0 | 0.00 | 1.93 | 0.03 | 96 | 1014.2 |
| 20260505091021 | 4 | 0 | 0.0 | 0.0 | 0.00 | 1.93 | 0.03 | 96 | 1014.1 |
| 20260505090518 | 4 | 0 | 0.0 | 0.0 | 0.00 | 1.93 | 0.03 | 96 | 1014.0 |
| 20260505090041 | 4 | 0 | 0.0 | 0.0 | 0.00 | 1.93 | 0.03 | 96 | 1014.1 |
| 20260505085518 | 4 | 0 | 0.0 | 0.0 | 0.00 | 1.93 | 0.03 | 96 | 1014.1 |
| 20260505085022 | 4 | 0 | 0.0 | 0.0 | 0.00 | 1.93 | 0.03 | 96 | 1014.2 |
| 20260505084535 | 5 | 0 | 0.0 | 0.0 | 0.00 | 1.93 | 0.03 | 96 | 1014.2 |
| 20260505084018 | 5 | 0 | 0.0 | 0.0 | 0.00 | 1.93 | 0.03 | 96 | 1014.3 |
| 20260505083519 | 5 | 0 | 0.0 | 0.0 | 0.00 | 1.93 | 0.03 | 96 | 1014.5 |
| 20260505083046 | 5 | 0 | 0.0 | 0.0 | 0.00 | 1.93 | 0.03 | 96 | 1014.5 |
| 20260505082517 | 5 | 0 | 0.0 | 0.0 | 0.00 | 1.93 | 0.03 | 96 | 1014.5 |
| 20260505082018 | 5 | 0 | 0.0 | 0.0 | 0.00 | 1.93 | 0.03 | 96 | 1014.6 |
| 20260505081544 | 5 | 0 | 0.0 | 0.0 | 0.00 | 1.93 | 0.03 | 96 | 1014.5 |
| 20260505081017 | 5 | 0 | 0.0 | 0.0 | 0.00 | 1.93 | 0.03 | 96 | 1014.5 |
| 20260505080517 | 5 | 0 | 0.0 | 0.0 | 0.00 | 1.93 | 0.03 | 96 | 1014.5 |
| 20260505080048 | 5 | 0 | 0.0 | 0.0 | 0.00 | 1.93 | 0.03 | 96 | 1014.5 |
| 20260505075517 | 4 | 0 | 0.0 | 0.0 | 0.03 | 1.93 | 0.03 | 96 | 1014.5 |
| 20260505075018 | 4 | 0 | 0.0 | 0.0 | 0.05 | 1.93 | 0.03 | 96 | 1014.5 |
| 20260505074539 | 4 | 0 | 0.0 | 0.0 | 0.08 | 1.93 | 0.03 | 96 | 1014.5 |
| 20260505074022 | 4 | 0 | 0.0 | 0.0 | 0.10 | 1.93 | 0.03 | 96 | 1014.5 |
| 20260505073517 | 4 | 0 | 0.0 | 0.0 | 0.13 | 1.93 | 0.03 | 96 | 1014.5 |
| 20260505073043 | 4 | 0 | 0.0 | 0.0 | 0.18 | 1.93 | 0.03 | 96 | 1014.5 |
| 20260505072517 | 4 | 0 | 0.0 | 0.0 | 0.20 | 1.93 | 0.03 | 96 | 1014.4 |
| 20260505072019 | 4 | 0 | 0.0 | 0.0 | 0.25 | 1.93 | 0.03 | 96 | 1014.3 |
| 20260505071540 | 4 | 0 | 0.0 | 0.0 | 0.28 | 1.93 | 0.03 | 96 | 1014.4 |
| 20260505071022 | 4 | 0 | 0.0 | 0.0 | 0.28 | 1.93 | 0.03 | 96 | 1014.4 |
| 20260505070519 | 5 | 0 | 0.0 | 0.0 | 0.28 | 1.93 | 0.03 | 96 | 1014.2 |
| 20260505070041 | 5 | 0 | 0.0 | 0.0 | 0.28 | 1.91 | 0.00 | 96 | 1014.3 |
| 20260505065520 | 5 | 0 | 0.0 | 0.0 | 0.28 | 1.91 | 1.91 | 96 | 1014.3 |
| 20260505065019 | 5 | 0 | 0.0 | 0.0 | 0.28 | 1.88 | 1.88 | 96 | 1014.3 |
| 20260505064536 | 5 | 0 | 0.0 | 0.0 | 0.28 | 1.85 | 1.85 | 96 | 1014.3 |
| 20260505064019 | 5 | 0 | 0.0 | 0.0 | 0.25 | 1.83 | 1.83 | 96 | 1014.4 |
| 20260505063520 | 5 | 0 | 0.0 | 0.0 | 0.20 | 1.78 | 1.78 | 96 | 1014.5 |
| 20260505063045 | 5 | 0 | 0.0 | 0.0 | 0.20 | 1.75 | 1.75 | 96 | 1014.4 |
| 20260505062520 | 5 | 0 | 0.0 | 0.0 | 0.15 | 1.70 | 1.70 | 96 | 1014.5 |
| 20260505062026 | 5 | 0 | 0.0 | 3.2 | 0.13 | 1.68 | 1.68 | 96 | 1014.6 |
| 20260505061539 | 5 | 0 | 0.0 | 3.2 | 0.10 | 1.65 | 1.65 | 96 | 1014.7 |
| 20260505061024 | 5 | 0 | 0.0 | 3.2 | 0.10 | 1.65 | 1.65 | 96 | 1014.7 |
| 20260505060519 | 5 | 0 | 0.0 | 0.0 | 0.10 | 1.65 | 1.65 | 96 | 1014.8 |
| 20260505060046 | 5 | 0 | 0.0 | 0.0 | 0.08 | 1.63 | 1.63 | 96 | 1014.6 |
| 20260505055518 | 5 | 0 | 0.0 | 0.0 | 0.08 | 1.63 | 1.63 | 96 | 1014.5 |
| 20260505055018 | 5 | 0 | 0.0 | 0.0 | 0.05 | 1.60 | 1.60 | 96 | 1014.4 |
| 20260505054543 | 5 | 0 | 0.0 | 0.0 | 0.03 | 1.57 | 1.57 | 96 | 1014.4 |
| 20260505054017 | 5 | 0 | 0.0 | 0.0 | 0.03 | 1.57 | 1.57 | 96 | 1014.3 |
| 20260505053519 | 5 | 0 | 0.0 | 0.0 | 0.03 | 1.57 | 1.57 | 96 | 1014.5 |
| 20260505053043 | 5 | 0 | 0.0 | 0.0 | 0.03 | 1.55 | 1.55 | 96 | 1014.5 |
| 20260505052518 | 5 | 0 | 0.0 | 0.0 | 0.03 | 1.55 | 1.55 | 96 | 1014.6 |
| 20260505052019 | 5 | 0 | 0.0 | 0.0 | 0.03 | 1.55 | 1.55 | 96 | 1014.6 |
| 20260505051541 | 5 | 0 | 0.0 | 0.0 | 0.03 | 1.55 | 1.55 | 96 | 1014.6 |
| 20260505051019 | 5 | 0 | 0.0 | 0.0 | 0.03 | 1.55 | 1.55 | 96 | 1014.7 |
| 20260505050525 | 5 | 0 | 0.0 | 0.0 | 0.03 | 1.55 | 1.55 | 96 | 1014.8 |
| 20260505041549 | 5 | 240 | 1.6 | 6.4 | 0.05 | 1.52 | 1.52 | 96 | 1014.9 |
| 20260505041018 | 5 | 245 | 3.2 | 6.4 | 0.05 | 1.52 | 1.52 | 96 | 1014.9 |
| 20260505040518 | 5 | 271 | 1.6 | 4.8 | 0.05 | 1.52 | 1.52 | 96 | 1014.9 |
| 20260505040042 | 5 | 265 | 1.6 | 3.2 | 0.03 | 1.47 | 1.47 | 96 | 1014.7 |
| 20260505035521 | 5 | 265 | 1.6 | 6.4 | 0.03 | 1.47 | 1.47 | 96 | 1014.7 |
| 20260505035017 | 5 | 239 | 1.6 | 6.4 | 0.00 | 1.47 | 1.47 | 96 | 1014.6 |
| 20260505034537 | 5 | 251 | 1.6 | 6.4 | 0.00 | 1.47 | 1.47 | 96 | 1014.5 |
| 20260505034017 | 5 | 243 | 3.2 | 6.4 | 0.00 | 1.47 | 1.47 | 96 | 1014.4 |
| 20260505033517 | 5 | 251 | 1.6 | 4.8 | 0.03 | 1.47 | 1.47 | 96 | 1014.5 |
| 20260505033034 | 5 | 0 | 1.6 | 4.8 | 0.03 | 1.47 | 1.47 | 96 | 1014.6 |
| 20260505032522 | 5 | 0 | 0.0 | 0.0 | 0.03 | 1.47 | 1.47 | 96 | 1014.5 |
| 20260505032019 | 5 | 0 | 0.0 | 3.2 | 0.03 | 1.47 | 1.47 | 96 | 1014.5 |
| 20260505031543 | 5 | 0 | 0.0 | 3.2 | 0.03 | 1.47 | 1.47 | 96 | 1014.4 |
| 20260505031018 | 5 | 250 | 0.0 | 3.2 | 0.03 | 1.47 | 1.47 | 96 | 1014.3 |
| 20260505030517 | 5 | 0 | 0.0 | 0.0 | 0.03 | 1.47 | 1.47 | 96 | 1014.3 |
| 20260505030047 | 5 | 0 | 0.0 | 0.0 | 0.03 | 1.47 | 1.47 | 96 | 1014.4 |
| 20260505025521 | 5 | 0 | 0.0 | 0.0 | 0.03 | 1.47 | 1.47 | 96 | 1014.3 |
| 20260505025020 | 5 | 0 | 0.0 | 0.0 | 0.03 | 1.47 | 1.47 | 96 | 1014.2 |
| 20260505024536 | 5 | 0 | 0.0 | 0.0 | 0.03 | 1.47 | 1.47 | 96 | 1014.2 |
| 20260505024018 | 5 | 0 | 0.0 | 0.0 | 0.03 | 1.47 | 1.47 | 96 | 1014.2 |
| 20260505023519 | 5 | 0 | 0.0 | 0.0 | 0.00 | 1.45 | 1.45 | 96 | 1014.2 |
| 20260505023035 | 5 | 0 | 0.0 | 0.0 | 0.00 | 1.45 | 1.45 | 96 | 1014.2 |
| 20260505022519 | 5 | 0 | 0.0 | 0.0 | 0.00 | 1.45 | 1.45 | 96 | 1014.3 |
| 20260505022018 | 5 | 0 | 0.0 | 0.0 | 0.00 | 1.45 | 1.45 | 96 | 1014.2 |
| 20260505021551 | 5 | 0 | 0.0 | 0.0 | 0.00 | 1.45 | 1.45 | 96 | 1014.4 |
| 20260505021017 | 5 | 0 | 0.0 | 0.0 | 0.00 | 1.45 | 1.45 | 96 | 1014.4 |
| 20260505020516 | 5 | 0 | 0.0 | 0.0 | 0.00 | 1.45 | 1.45 | 96 | 1014.5 |
| 20260505020052 | 5 | 0 | 0.0 | 0.0 | 0.00 | 1.45 | 1.45 | 96 | 1014.6 |
| 20260505015520 | 5 | 0 | 0.0 | 0.0 | 0.00 | 1.45 | 1.45 | 96 | 1014.5 |
| 20260505015020 | 5 | 0 | 0.0 | 0.0 | 0.00 | 1.45 | 1.45 | 96 | 1014.6 |
| 20260505014543 | 5 | 0 | 0.0 | 0.0 | 0.00 | 1.45 | 1.45 | 96 | 1014.6 |
| 20260505014016 | 5 | 0 | 0.0 | 0.0 | 0.00 | 1.45 | 1.45 | 96 | 1014.6 |
| 20260505013515 | 5 | 0 | 0.0 | 0.0 | 0.00 | 1.45 | 1.45 | 96 | 1014.7 |
| 20260505013041 | 5 | 0 | 0.0 | 3.2 | 0.00 | 1.45 | 1.45 | 96 | 1014.6 |
| 20260505012519 | 5 | 0 | 0.0 | 3.2 | 0.00 | 1.45 | 1.45 | 96 | 1014.7 |
| 20260505012022 | 5 | 250 | 0.0 | 4.8 | 0.00 | 1.45 | 1.45 | 96 | 1014.6 |
| 20260505011536 | 5 | 250 | 1.6 | 4.8 | 0.00 | 1.45 | 1.45 | 96 | 1014.8 |
| 20260505011018 | 5 | 244 | 1.6 | 4.8 | 0.00 | 1.45 | 1.45 | 96 | 1014.7 |
| 20260505010519 | 5 | 256 | 3.2 | 4.8 | 0.00 | 1.45 | 1.45 | 96 | 1014.7 |
| 20260505010056 | 5 | 252 | 3.2 | 4.8 | 0.00 | 1.45 | 1.45 | 96 | 1014.7 |
| 20260505005520 | 5 | 250 | 1.6 | 6.4 | 0.00 | 1.45 | 1.45 | 96 | 1014.7 |
| 20260505005021 | 5 | 255 | 3.2 | 6.4 | 0.00 | 1.45 | 1.45 | 96 | 1015.0 |
| 20260505004535 | 5 | 249 | 1.6 | 8.0 | 0.00 | 1.45 | 1.45 | 96 | 1015.0 |
| 20260505004018 | 5 | 252 | 1.6 | 8.0 | 0.00 | 1.45 | 1.45 | 96 | 1015.0 |
| 20260505003517 | 5 | 229 | 1.6 | 8.0 | 0.00 | 1.45 | 1.45 | 96 | 1015.1 |
| 20260505003045 | 5 | 254 | 3.2 | 8.0 | 0.00 | 1.45 | 1.45 | 96 | 1015.0 |
| 20260505002520 | 5 | 240 | 4.8 | 11.3 | 0.00 | 1.45 | 1.45 | 96 | 1014.9 |
| 20260505002017 | 5 | 253 | 4.8 | 11.3 | 0.00 | 1.45 | 1.45 | 96 | 1014.9 |
| 20260505001541 | 5 | 251 | 4.8 | 11.3 | 0.00 | 1.45 | 1.45 | 96 | 1014.8 |
| 20260505001023 | 5 | 243 | 4.8 | 11.3 | 0.03 | 1.45 | 1.45 | 96 | 1014.8 |
| 20260505000517 | 5 | 246 | 4.8 | 11.3 | 0.03 | 1.45 | 1.45 | 96 | 1014.8 |
| 20260505000048 | 5 | 243 | 4.8 | 11.3 | 0.05 | 1.45 | 1.45 | 96 | 1014.7 |
| 20260504235515 | 5 | 206 | 4.8 | 11.3 | 0.05 | 1.45 | 1.45 | 96 | 1014.8 |
| 20260504235018 | 5 | 252 | 4.8 | 11.3 | 0.08 | 1.45 | 1.45 | 96 | 1014.8 |
| 20260504234536 | 5 | 240 | 3.2 | 8.0 | 0.10 | 1.45 | 1.45 | 96 | 1014.9 |
| 20260504234019 | 6 | 211 | 1.6 | 6.4 | 0.13 | 1.45 | 1.45 | 96 | 1014.9 |
| 20260504233518 | 6 | 265 | 1.6 | 8.0 | 0.15 | 1.45 | 1.45 | 96 | 1014.9 |
| 20260504233041 | 6 | 251 | 1.6 | 8.0 | 0.18 | 1.45 | 1.45 | 96 | 1014.8 |
| 20260504232516 | 6 | 233 | 3.2 | 6.4 | 0.20 | 1.45 | 1.45 | 96 | 1014.9 |
| 20260504232015 | 6 | 246 | 1.6 | 6.4 | 0.23 | 1.45 | 1.45 | 96 | 1014.8 |
| 20260504231536 | 6 | 236 | 1.6 | 8.0 | 0.28 | 1.45 | 1.45 | 96 | 1014.9 |
| 20260504231017 | 5 | 239 | 3.2 | 8.0 | 0.28 | 1.42 | 1.42 | 96 | 1014.8 |
| 20260504230521 | 5 | 234 | 3.2 | 6.4 | 0.30 | 1.42 | 1.42 | 96 | 1014.9 |
| 20260504230039 | 5 | 250 | 3.2 | 6.4 | 0.30 | 1.40 | 1.40 | 96 | 1015.0 |
| 20260504225517 | 5 | 238 | 3.2 | 4.8 | 0.33 | 1.37 | 1.37 | 96 | 1014.9 |
| 20260504225019 | 5 | 0 | 0.0 | 4.8 | 0.36 | 1.37 | 1.37 | 96 | 1015.0 |
| 20260504224557 | 5 | 0 | 0.0 | 4.8 | 0.38 | 1.32 | 1.32 | 96 | 1014.9 |
| 20260504224015 | 5 | 239 | 1.6 | 3.2 | 0.38 | 1.32 | 1.32 | 96 | 1015.0 |
| 20260504223517 | 5 | 229 | 0.0 | 3.2 | 0.41 | 1.30 | 1.30 | 96 | 1015.0 |
| 20260504223040 | 5 | 0 | 0.0 | 0.0 | 0.41 | 1.27 | 1.27 | 96 | 1015.1 |
| 20260504222517 | 5 | 0 | 0.0 | 0.0 | 0.43 | 1.24 | 1.24 | 96 | 1015.2 |
| 20260504222018 | 5 | 0 | 0.0 | 0.0 | 0.48 | 1.22 | 1.22 | 96 | 1015.2 |
| 20260504221535 | 5 | 0 | 0.0 | 0.0 | 0.48 | 1.17 | 1.17 | 96 | 1015.2 |
| 20260504221020 | 5 | 0 | 0.0 | 0.0 | 0.48 | 1.14 | 1.14 | 96 | 1015.3 |
| 20260504220516 | 5 | 0 | 0.0 | 0.0 | 0.48 | 1.12 | 1.12 | 96 | 1015.3 |
| 20260504220035 | 5 | 0 | 0.0 | 0.0 | 0.48 | 1.07 | 1.07 | 96 | 1015.4 |
| 20260504215520 | 5 | 0 | 0.0 | 0.0 | 0.48 | 1.04 | 1.04 | 96 | 1015.4 |
| 20260504215018 | 5 | 0 | 0.0 | 0.0 | 0.48 | 1.02 | 1.02 | 96 | 1015.4 |
| 20260504214544 | 5 | 0 | 0.0 | 0.0 | 0.46 | 0.97 | 0.97 | 96 | 1015.5 |
| 20260504214016 | 5 | 0 | 0.0 | 0.0 | 0.46 | 0.91 | 0.91 | 96 | 1015.5 |
| 20260504213517 | 5 | 0 | 0.0 | 3.2 | 0.46 | 0.89 | 0.89 | 96 | 1015.6 |
| 20260504213035 | 5 | 0 | 0.0 | 3.2 | 0.43 | 0.84 | 0.84 | 96 | 1015.4 |
| 20260504212517 | 5 | 0 | 0.0 | 4.8 | 0.41 | 0.79 | 0.79 | 96 | 1015.4 |
| 20260504212019 | 5 | 227 | 0.0 | 4.8 | 0.36 | 0.74 | 0.74 | 96 | 1015.4 |
| 20260504211537 | 5 | 227 | 1.6 | 4.8 | 0.30 | 0.69 | 0.69 | 96 | 1015.3 |
| 20260504211018 | 5 | 236 | 1.6 | 6.4 | 0.28 | 0.66 | 0.66 | 96 | 1015.4 |
| 20260504210522 | 5 | 236 | 1.6 | 6.4 | 0.23 | 0.61 | 0.61 | 96 | 1015.5 |
| 20260504210040 | 5 | 246 | 3.2 | 6.4 | 0.20 | 0.58 | 0.58 | 96 | 1015.5 |
| 20260504205518 | 5 | 239 | 1.6 | 8.0 | 0.18 | 0.56 | 0.56 | 96 | 1015.5 |
| 20260504205019 | 5 | 248 | 4.8 | 8.0 | 0.15 | 0.53 | 0.53 | 96 | 1015.4 |
| 20260504204543 | 5 | 246 | 4.8 | 8.0 | 0.10 | 0.48 | 0.48 | 96 | 1015.5 |
| 20260504204017 | 5 | 251 | 3.2 | 11.3 | 0.08 | 0.46 | 0.46 | 96 | 1015.5 |
| 20260504203519 | 5 | 263 | 0.0 | 11.3 | 0.05 | 0.43 | 0.43 | 96 | 1015.5 |
| 20260504203037 | 5 | 246 | 3.2 | 8.0 | 0.03 | 0.41 | 0.41 | 96 | 1015.4 |
| 20260504202519 | 5 | 252 | 3.2 | 6.4 | 0.00 | 0.38 | 0.38 | 96 | 1015.3 |
| 20260504202019 | 6 | 252 | 3.2 | 6.4 | 0.00 | 0.38 | 0.38 | 96 | 1015.2 |
| 20260504201547 | 6 | 239 | 3.2 | 8.0 | 0.00 | 0.38 | 0.38 | 96 | 1015.2 |